ROSEYCUBESAT-1 (56212 NORAD) Tracking and Keplerian Element Data

This shows tracking and keplerian element data for the satellite.

Feedback or suggestion? Click here.




ElementValue
Catalog56212
NameROSEYCUBESAT-1
Epoch Orbit390
Epoch Day126.93692526
Epoch Year2023
RAAN22.5205
Inclination97.4138
Eccentricity0.0016529
Argument of Perigee150.0585
Mean Anonmoly210.1601
Mean Motion15.23689067
Decay Rate0.00023761
L11 56212U 23054AL 23126.93692526 .00023761 00000+0 98710-3 0 9992
L22 56212 97.4138 22.5205 0016529 150.0585 210.1601 15.23689067 3903



Live tracking and technical data element details for ROSEYCUBESAT-1 (NORAD 56212). ROSEYCUBESAT-1 can be tracked NOW for your location showing map with azimuth and elevation plus other details from your city location.







IsCatalogInMostPopularTable: catalog: 56212, numindb: 9
Update: records affected: 1



GetName: 56212 ROSEYCUBESAT-1

Hit Count: updated at: Wed, 07 Jun 2023 10:11:30 GMT